This demonstration page uses our WeatherBlox Daily Observations layout. Learn more.

Left ArrowRight Arrow

40.92501, -98.34201

Hourly Observations for September 10, 2022

Temp ( °F °C ) Dew Point ( °F °C ) Humidity (%) Winds ( mph kmh ) Pressure ( in mb ) Visibility ( mi km ) Precip ( " mm )
12:21 am 00:21 Cloudy with Nearby Thunderstorms 55 12.8 52 11.1 89 89 NNE 13 20 30.09 1019 4 6 0.05 1.27
1:03 am 01:03 Cloudy with Thunderstorms 55 12.8 52 11.1 89 89 NNW 12 19 30.14 1021 4 6 0.15 3.81
1:12 am 01:12 Cloudy with Nearby Thunderstorms 55 12.8 53 11.7 93 93 NE 6 9 30.11 1020 7 11 0.16 4.06
1:53 am 01:53 Cloudy with Rain 55 12.8 53 11.7 93 93 N 10 17 30.11 1020 5 8 0.24 6.10
3:28 am 03:28 Cloudy with Heavy Rain 56 13.3 54 12.2 93 93 NE 10 17 30.11 1020 3 4 0.09 2.29
3:42 am 03:42 Cloudy with Rain 56 13.3 53 11.7 90 90 N 15 24 30.12 1020 3 4 0.17 4.32
3:49 am 03:49 Cloudy with Light Rain 55 13 54 12 94 94 N 13 20 30.14 1021 4 6 0.20 5.08
3:53 am 03:53 Cloudy with Light Rain 56 13.3 53 11.7 90 90 N 13 20 30.14 1021 5 8 0.20 5.08
4:31 am 04:31 Cloudy with Light Rain 56 13.3 53 11.7 90 90 N 12 19 30.12 1020 10 16 0.04 1.02
4:53 am 04:53 Cloudy 56 13.3 53 11.7 90 90 N 8 13 30.13 1020 10 16 0.04 1.02
5:15 am 05:15 Cloudy with Light Rain 55 12.8 53 11.7 93 93 N 13 20 30.12 1020 8 13 0.01 0.25
5:44 am 05:44 Cloudy 55 12.8 53 11.7 93 93 N 12 19 30.13 1020 10 16 0.02 0.51
5:53 am 05:53 Cloudy 55 12.8 52 11.1 89 89 N 12 19 30.14 1021 10 16 0.02 0.51
6:06 am 06:06 Cloudy with Light Rain 55 12.8 52 11.1 89 89 N 12 19 30.13 1020 10 16 0.01 0.13
6:53 am 06:53 Cloudy 55 12.8 52 11.1 89 89 N 10 17 30.17 1022 10 16 0.01 0.13
7:11 am 07:11 Cloudy 55 12.8 52 11.1 89 89 N 12 19 30.16 1021 10 16 0.00 0.00
7:41 am 07:41 Cloudy 55 12.8 52 11.1 89 89 N 8 13 30.17 1022 10 16 0.01 0.13
7:53 am 07:53 Cloudy with Light Rain 55 12.8 52 11.1 89 89 N 7 11 30.20 1023 10 16 0.01 0.13
8:12 am 08:12 Cloudy with Light Rain 55 12.8 52 11.1 89 89 N 6 9 30.20 1023 10 16 0.01 0.25
8:19 am 08:19 Cloudy with Light Rain 55 12.8 52 11.1 89 89 N 6 9 30.20 1023 10 16 0.01 0.25
9:41 am 09:41 Cloudy 56 13.3 53 11.7 90 90 NE 8 13 30.17 1022 10 16 0.00 0.00
9:53 am 09:53 Cloudy 56 13.3 53 11.7 90 90 NNE 8 13 30.21 1023 10 16 0.00 0.00
10:39 am 10:39 Cloudy 57 13.9 53 11.7 87 87 NNW 9 15 30.23 1024 10 16 0.00 0.00
10:50 am 10:50 Cloudy 57 14 54 12 88 88 N 8 13 30.22 1023 10 16 0.00 0.00
10:53 am 10:53 Cloudy 57 13.9 54 12.2 89 89 N 8 13 30.24 1024 10 16 0.00 0.00
11:41 am 11:41 Cloudy 59 15 54 12.2 83 83 N 9 15 30.22 1024 10 16 0.00 0.00
11:53 am 11:53 Cloudy 59 15 53 11.7 81 81 N 7 11 30.26 1025 10 16 0.00 0.00
12:17 pm 12:17 Cloudy 59 15 54 12.2 83 83 NNE 10 17 30.20 1023 10 16 0.01 0.13
12:26 pm 12:26 Cloudy with Light Rain 58 14.4 54 12.2 87 87 N 10 17 30.22 1023 10 16 0.01 0.13
12:39 pm 12:39 Cloudy with Light Rain 58 14.4 54 12.2 87 87 NNW 9 15 30.24 1024 10 16 0.01 0.13
12:53 pm 12:53 Cloudy 59 15 55 12.8 87 87 NNW 8 13 30.26 1025 10 16 0.01 0.25
1:53 pm 13:53 Partly Cloudy 62 16.7 53 11.7 72 72 N 7 11 30.25 1025 10 16 0.00 0.00
2:53 pm 14:53 Sunny 64 17.8 50 10 60 60 N 9 15 30.24 1024 10 16 0.00 0.00
3:53 pm 15:53 Sunny 67 19.4 45 7.2 45 45 N 13 20 30.23 1024 10 16 0.00 0.00
4:53 pm 16:53 Sunny 68 20 44 6.7 42 42 NNE 8 13 30.22 1024 10 16 0.00 0.00
5:53 pm 17:53 Sunny 67 19.4 44 6.7 44 44 NNE 7 11 30.24 1024 10 16 0.00 0.00
6:53 pm 18:53 Sunny 66 18.9 46 7.8 48 48 NE 3 6 30.24 1024 10 16 0.00 0.00
7:53 pm 19:53 Clear 62 16.7 52 11.1 70 70 Calm 30.24 1024 10 16 0.00 0.00
8:53 pm 20:53 Clear 58 14.4 50 10 75 75 Calm 30.26 1025 10 16 0.00 0.00
9:53 pm 21:53 Clear 55 12.8 49 9.4 80 80 WNW 3 6 30.28 1025 10 16 0.00 0.00
10:53 pm 22:53 Clear 53 11.7 48 8.9 83 83 WSW 3 6 30.29 1026 10 16 0.00 0.00
11:53 pm 23:53 Clear 52 11.1 47 8.3 83 83 W 5 7 30.29 1026 10 16 0.00 0.00

Powered by AerisWeather